Weather History for Johnstown, PA

Change the Weather History Date:

Wednesday, February 1, 2012

  Actual Average Record
Temperature  
Mean Temperature 45 °F 25 °F  
Max Temperature 48 °F 32 °F 67 °F (1989)
Min Temperature 42 °F 19 °F -4 °F (1948)
Degree Days  
Heating Degree Days 20 40  
Month to date heating degree days 40  
Since 1 July heating degree days 3857  
Cooling Degree Days 0 0  
Month to date cooling degree days 0  
Year to date cooling degree days 0  
Moisture  
Dew Point 40 °F    
Average Humidity 83    
Maximum Humidity 93    
Minimum Humidity 69    
Precipitation  
Precipitation 0.02 in 0.08 in 1.16 in (1908)
Month to date precipitation 0.08  
Year to date precipitation 2.96  
Sea Level Pressure  
Sea Level Pressure 30.01 in    
Wind  
Wind Speed 14 mph (WSW)    
Max Wind Speed 21 mph    
Max Gust Speed 34 mph    
Visibility 10 miles    
Events Rain    
T = Trace of Precipitation, MM = Missing Value Source: NWS Daily Summary

Daily Weather History Graph

Daily Weather History Graph

Search for Another Location

Airport:

Trip Planner

Search our weather history database for the weather conditions in past years. The results will help you decide how hot, cold, wet, or windy it might be!

Date:

Astronomy

Feb. 01, 2012 Rise Set
Actual Time 7:24 AM EST 5:33 PM EST
Civil Twilight 6:56 AM EST 6:02 PM EST
Nautical Twilight 6:23 AM EST 6:34 PM EST
Astronomical Twilight 5:51 AM EST 7:06 PM EST
Moon 11:59 AM EST (2/1) 2:09 AM EST (2/1)
Length of Visible Light 11h 05m
Length of Day
10h 08m
Waxing Gibbous, 64% of the Moon is Illuminated
Feb 1
Waxing Gibbous
Feb 7
Full
Feb 14
Last Quarter
Feb 21
New
Feb 29
First Quarter

Hourly Weather History & Observations

Time (EST) Temp. Windchill Dew Point Humidity Pressure Visibility Wind Dir Wind Speed Gust Speed Precip Events Conditions
12:54 AM 46.0 °F 38.3 °F 37.9 °F 73% 30.03 in 10.0 mi West 20.7 mph 34.5 mph 0.00 in Rain Light Rain
1:54 AM 44.1 °F 36.5 °F 39.0 °F 82% 30.02 in 10.0 mi WSW 17.3 mph - 0.01 in Rain Light Rain
2:54 AM 43.0 °F 35.7 °F 39.0 °F 86% 30.01 in 10.0 mi West 15.0 mph 21.9 mph 0.00 in Rain Light Rain
3:05 AM 42.8 °F 34.8 °F 39.2 °F 87% 30.00 in 10.0 mi WSW 17.3 mph 24.2 mph 0.00 in Rain Light Rain
3:54 AM 43.0 °F 35.4 °F 39.0 °F 86% 30.00 in 10.0 mi WSW 16.1 mph 24.2 mph 0.01 in   Overcast
4:35 AM 44.6 °F 37.8 °F 37.4 °F 76% 29.96 in 10.0 mi SW 15.0 mph - N/A   Overcast
4:54 AM 44.6 °F 38.1 °F 37.4 °F 76% 29.95 in 10.0 mi SW 13.8 mph 21.9 mph N/A   Overcast
5:54 AM 44.6 °F 37.2 °F 39.2 °F 81% 29.95 in 10.0 mi SW 17.3 mph 26.5 mph N/A   Overcast
6:54 AM 44.6 °F 38.1 °F 39.2 °F 81% 29.95 in 10.0 mi SW 13.8 mph 23.0 mph N/A   Overcast
7:54 AM 45.0 °F 38.2 °F 41.0 °F 86% 29.99 in 10.0 mi SW 15.0 mph 25.3 mph 0.00 in Rain Light Rain
8:33 AM 44.6 °F 38.4 °F 39.2 °F 81% 29.98 in 10.0 mi WSW 12.7 mph 25.3 mph 0.00 in   Overcast
8:54 AM 44.6 °F 37.2 °F 39.2 °F 81% 29.99 in 10.0 mi WSW 17.3 mph 27.6 mph N/A Rain Light Rain
9:11 AM 44.6 °F 38.4 °F 41.0 °F 87% 29.99 in 10.0 mi WSW 12.7 mph 27.6 mph 0.00 in   Overcast
9:54 AM 44.1 °F 37.1 °F 41.0 °F 89% 30.01 in 10.0 mi WSW 15.0 mph 26.5 mph 0.00 in Rain Light Rain
10:22 AM 44.6 °F 38.1 °F 42.8 °F 93% 30.01 in 10.0 mi WSW 13.8 mph - 0.00 in   Overcast
10:54 AM 44.1 °F 37.7 °F 42.1 °F 93% 30.04 in 10.0 mi WSW 12.7 mph 19.6 mph 0.00 in   Overcast
11:35 AM 44.6 °F 38.8 °F 42.8 °F 93% 30.02 in 10.0 mi WSW 11.5 mph - N/A   Overcast
11:54 AM 45.0 °F 39.7 °F 42.1 °F 90% 30.04 in 10.0 mi West 10.4 mph 20.7 mph N/A   Overcast
12:36 PM 46.4 °F 40.1 °F 41.0 °F 81% 30.01 in 10.0 mi West 15.0 mph 27.6 mph N/A   Overcast
12:54 PM 46.0 °F 38.5 °F 41.0 °F 83% 30.03 in 10.0 mi West 19.6 mph - N/A   Overcast
1:54 PM 46.9 °F - 39.9 °F 77% 30.01 in 10.0 mi West 19.6 mph 28.8 mph N/A   Overcast
2:27 PM 48.2 °F - 39.2 °F 71% 29.98 in 10.0 mi West 15.0 mph 24.2 mph N/A   Scattered Clouds
2:54 PM 48.9 °F - 39.9 °F 71% 30.01 in 10.0 mi West 19.6 mph 31.1 mph N/A   Partly Cloudy
3:54 PM 48.2 °F - 39.2 °F 71% 29.98 in 10.0 mi West 12.7 mph - N/A   Clear
4:51 PM 48.2 °F - 39.2 °F 71% 29.99 in 10.0 mi WSW 9.2 mph 17.3 mph N/A   Mostly Cloudy
4:54 PM 48.2 °F - 39.2 °F 71% 30.00 in 10.0 mi West 9.2 mph - N/A   Mostly Cloudy
5:54 PM 46.0 °F 42.5 °F 39.0 °F 76% 30.03 in 10.0 mi WSW 6.9 mph - N/A   Mostly Cloudy
6:54 PM 45.0 °F 40.1 °F 41.0 °F 86% 30.05 in 10.0 mi West 9.2 mph - N/A   Scattered Clouds
7:54 PM 44.1 °F 39.0 °F 39.9 °F 85% 30.04 in 10.0 mi West 9.2 mph - N/A   Partly Cloudy
8:54 PM 43.0 °F 41.3 °F 37.9 °F 82% 30.05 in 10.0 mi SW 3.5 mph - N/A   Partly Cloudy
9:54 PM 42.1 °F 40.2 °F 39.9 °F 92% 30.06 in 10.0 mi WSW 3.5 mph - N/A   Partly Cloudy
10:54 PM 43.0 °F 41.3 °F 39.0 °F 86% 30.04 in 10.0 mi WSW 3.5 mph - N/A   Partly Cloudy
11:08 PM 42.8 °F 41.1 °F 39.2 °F 87% 30.01 in 10.0 mi SW 3.5 mph - N/A   Mostly Cloudy
11:38 PM 42.8 °F - 39.2 °F 87% 30.01 in 10.0 mi Calm Calm - N/A   Mostly Cloudy
11:54 PM 42.1 °F - 39.9 °F 92% 30.04 in 10.0 mi Calm Calm - N/A   Mostly Cloudy